sat.trackr.live / text

‹ back to catalog

STARLINK-33882

NORAD 63788 · 2025-091P

PAYLOAD ACTIVE UNKNOWN

§ Identity

Operator
Country
US
Launch date
2025-05-02
Launch site
AFETR
Launch vehicle
Mass (kg)
RCS (m²)

Purposes: comms

External: N2YO · Heavens-Above · Gunter

§ Orbital elements

Epoch: 2026-05-24T22:31:26.424192Z

Period
94.27 min
Inclination
43.0036°
Eccentricity
0.0001750
Mean motion
15.27601618 rev/d
Perigee alt
481.8 km
Apogee alt
484.2 km
Semi-major
6,861.1 km
B*
7.3136e-4
RAAN
341.8974°
Arg perigee
258.6538°
Mean anomaly
101.4118°
Rev number
6,055

§ Raw data

STARLINK-338821 63788U 25091P   26144.93850028  .00019931  00000+0  73136-3 0  99962 63788  43.0036 341.8974 0001750 258.6538 101.4118 15.27601618 60555

JSON: /api/v1/satellites/63788 · /tle

For live sub-satellite position, see the globe view (requires WebGL).

§ Visibility from observer

Set your observer location to see the next 7 days of passes ≥ 10°. The values pass through the URL so the page stays shareable.

No JS? Fill the form by hand. The geolocation button needs JavaScript.